Location: Banksville Park
(38.5557°N, 75.1182°W)
Time: 06:02:55
(UTC+00:00)

CENTAUR R/B - Pass Details

Date: 25 January 2021
Orbit: 742 x 1446 km, 63.5° (Epoch: 01 March)

Event Time Altitude Azimuth Distance (km) Brightness Sun altitude
Rises 10:23:28 0° 200° (SSW) 3,286 5.2 -21.1°
Reaches altitude 10° 10:25:46 10° 196° (SSW) 2,420 4.5 -20.6°
Maximum altitude 10:31:14 61° 117° (ESE) 1,032 2.9 -19.6°
Drops below altitude 10° 10:37:44 10° 39° (NE) 2,857 5.3 -18.3°
Sets 10:40:38 0° 36° (NE) 3,929 6.0 -17.8°
